Regional Weather Roundup
Issued by NWS

Home | Current Version | Previous Version | Graphics & Text | Print | Product List | Glossary On
Versions: 1 2 3 4 5 6 7 8 9 10 11 12 13 14 15 16 17 18 19 20 21 22 23 24 25 26 27 28 29 30 31 32 33 34 35 36 37 38 39 40 41 42 43 44 45 46 47 48 49 50
000
ASUS43 KLMK 121202
RWRKY
KENTUCKY REGIONAL WEATHER ROUNDUP
NATIONAL WEATHER SERVICE LOUISVILLE KY
700 AM EST TUE DEC 12 2017

NOTE "FAIR" INDICATES FEW OR NO CLOUDS BELOW 12,000 FEET
WITH NO SIGNIFICANT WEATHER AND/OR OBSTRUCTIONS TO VISIBILITY.

KYZ001>023-026-027-061>063-070>075-121300-
WESTERN AND SOUTH CENTRAL KENTUCKY

CITY           SKY/WX    TMP DP  RH WIND       PRES   REMARKS
PADUCAH        CLOUDY    41  28  60 N10       30.08R
HENDERSON      CLOUDY    35  29  78 NW22G30   30.06R WCI  23
OWENSBORO      CLOUDY    36  28  73 N10       30.03R WCI  28
HOPKINSVILLE   DRIZZLE   40  34  77 NW13      30.02R WCI  33
BOWLING GREEN  CLOUDY    40  33  76 NW10G21   30.00R WCI  33
GLASGOW        NOT AVBL
$$

KYZ024-025-028>034-038-045-046-053-121300-
NORTH CENTRAL KENTUCKY

CITY           SKY/WX    TMP DP  RH WIND       PRES   REMARKS
LOUISVILLE/SDF CLOUDY    36  29  75 NW18G31   29.95R WCI  26
LOUISVILLE/LOU LGT RAIN  35  31  85 W16G25    29.95R WCI  25
FORT KNOX      CLOUDY    34  30  85 W14G22    29.94R WCI  24
$$

KYZ035>037-039>044-047>052-055>060-089>105-121300-
NORTHEAST KENTUCKY

CITY           SKY/WX    TMP DP  RH WIND       PRES   REMARKS
LEXINGTON      LGT RAIN  36  31  82 W15G24    29.88R WCI  27
COVINGTON      LGT SNOW  32  31  96 NW15G23   29.86R FOG     WCI  22
FRANKFORT      CLOUDY    36  30  79 W9G22     29.89R HAZE    WCI  29
$$

KYZ054-064>069-076>088-106>120-121300-
SOUTHEAST KENTUCKY

CITY           SKY/WX    TMP DP  RH WIND       PRES   REMARKS
JACKSON        CLOUDY    39  28  64 W6        29.81R WCI  35
LONDON         CLOUDY    40  31  70 NW9       29.85R WCI  34
SOMERSET       NOT AVBL
MIDDLESBORO    CLOUDY    42  32  68 NW9       29.85R
MONTICELLO     CLOUDY    41  32  70 NW15G21   29.91R
$$





USA.gov is the U.S. government's official web portal to all federal, state and local government web resources and services.